Location: Antioch
(38.0049°N, 121.8058°W)
Time: 19:06:23
(UTC+00:00)

Cosmos 1674 Rocket - Pass Details

Date: 11 February 2026
Orbit: 596 x 622 km, 82.5° (Epoch: 10 March)

Event Time Altitude Azimuth Distance (km) Brightness Sun altitude
Rises 13:56:18 0° 345° (NNW) 2,906 6.8 -13.4°
Reaches altitude 10° 13:58:37 10° 338° (NNW) 1,993 5.9 -12.9°
Maximum altitude 14:02:46 42° 268° (W) 888 3.9 -12.1°
Drops below altitude 10° 14:06:53 10° 198° (SSW) 1,968 6.1 -11.3°
Sets 14:09:10 0° 191° (S) 2,864 7.0 -10.9°
